OPS 4682 DEB, 18783

Orbit data source: Space-Track

OPS 4682 DEB, 18783 is space debris in LEO originally from a launch on Sat, 03 Apr 1965 UTC launched from the Air Force Western Test Range (AFWTR). Debris objects in space refer to the collection of defunct objects orbiting the Earth. Examples of debris include non-operational satellites, rocket bodies, and fragments generated from explosions, collisions, or faulty payload assembly.

Loading next visibility...
Identifier
18783, 1965-027AK
Orbit
LEO
Country
Flag of USUS
Related business
Manufacturer
Unknown
Mission
Spacecraft
Bus & Motor
Unknown
Mass
Unknown
Launch date (UTC)
1965-04-03 (61 years ago)
Launch vehicle
Unknown
Launch site
Air Force Western Test Range (AFWTR)
Object type
Payload
Rocket body
Debris
Shape & HBR
Unknown shape, 0.1 m
Radar Cross Section
Small (<0.1 m²)

Expand to show TLE details & history
Last TLE update: 22 hours ago

TLE from 22 hours ago
0 OPS 4682 DEB
1 18783U 65027AK  25348.86296395 -.00000453  00000-0 -15122-2 0  9994
2 18783  90.2610  21.8207 0026236 336.1991 208.0328 13.00716893556511
Epoch: 2025-12-14T20:42Z
TLE epoch observation values (Epoch: 2025-12-14T20:42:40.085Z)
Latitude
-4.22705°
Longitude
167.3647°
Altitude
1,280.514 km
Speed
7.207 km/s
True Right ascension
13h 27m 12s
True Declination
-4° 12' 13"
Sunlit
Object was in daylight at epoch
Visualization orbit readout
Latitude
Unknown
Longitude
Unknown
Altitude
Unknown
Speed
Unknown
Apparent Right ascension
Unknown
Apparent Declination
Unknown
Sunlit
N/A
Visualization observer readout
Local Sidereal Time
16:53:43
Azimuth
Unknown
Elevation
Unknown
Doppler factor
Unknown
Orbital elements
Apogee altitude
1,276.435 km
Perigee altitude
1,236.375 km
Semi-major axis
7,634.542 km
Eccentricity
0.00262
Inclination
90.261°
RAAN
21.8207°
Arg. of periapsis
336.1991°
True anomaly
207.89191°
Mean anomaly
208.0328°
Eccentric anomaly
207.96232°
Mean motion
3.25363 °/min
Orbital period
110.65 mins
BSTAR
-0.0015122
Loading maneuver chart data...
Computing Atmospheric mass density...
Loading historical data...
Loading historical data...
Loading historical data...
Loading historical data...
Loading historical data...
Loading historical data...
Loading historical data...

Documentation

Showing up to 5 results
|